Tracking 29892 objects as of 21-Nov-2024
HD Live streaming from Space Station
objects crossing your sky now

ARIANE 3 DEB

Track ARIANE 3 DEB now!


NORAD ID: 26806
Int'l Code: 1988-081G
Perigee: 1,112.5 km
Apogee: 36,476.4 km
Inclination: 5.6 °
Period: 662.2 minutes
Semi major axis: 25165 km
RCS: 1.4351 m2 (large)
Launch date: September 8, 1988
Source: France (FR)
Launch site: FRENCH GUIANA (FRGUI)

Note: This is SATELLITE DEBRIS
Your satellite tracking list
Your tracking list is empty




NASA's NSSDC Master Catalog

Two Line Element Set (TLE):
1 26806U 88081G   24326.00121682 -.00000117  00000-0  00000+0 0  9993
2 26806   5.6003 173.4881 7026296   0.8874 257.3851  2.17468235193360
Source of the keplerian elements: AFSPC